Weather History for Alexandria, LA

Change the Weather History Date:

Saturday, May 3, 2014

  Actual Average Record
Temperature  
Mean Temperature 69 °F 71 °F  
Max Temperature 87 °F 83 °F 96 °F (1955)
Min Temperature 50 °F 60 °F 43 °F (2013)
Cooling Degree Days 4 6  
Month to date cooling degree days 4 18  
Year to date cooling degree days 140 177  
Growing Degree Days 18 (Base 50)    
Moisture  
Dew Point 47 °F    
Average Humidity 54    
Maximum Humidity 89    
Minimum Humidity 19    
Precipitation  
Precipitation 0.00 in 0.14 in 3.25 in (1916)
Month to date precipitation 0.00 0.40  
Year to date precipitation 14.08 19.68  
Sea Level Pressure  
Sea Level Pressure 30.03 in    
Wind  
Wind Speed 4 mph (SSW)    
Max Wind Speed 13 mph    
Max Gust Speed 19 mph    
Visibility 10 miles    
Events      
T = Trace of Precipitation, MM = Missing Value Source: NWS Daily Summary

Daily Weather History Graph

Daily Weather History Graph

Search for Another Location

Airport:

Trip Planner

Search our weather history database for the weather conditions in past years. The results will help you decide how hot, cold, wet, or windy it might be!

Date:

Astronomy

May. 03, 2014 Rise Set
Actual Time 6:23 AM CDT 7:51 PM CDT
Civil Twilight 5:57 AM CDT 8:17 PM CDT
Nautical Twilight 5:26 AM CDT 8:48 PM CDT
Astronomical Twilight 4:54 AM CDT 9:20 PM CDT
Moon 9:56 AM CDT (5/3) 11:55 PM CDT (5/3)
Length of Visible Light 14h 19m
Length of Day
13h 27m
Waxing Crescent, 20% of the Moon is Illuminated
May 3
Waxing Crescent
May 6
First Quarter
May 14
Full
May 21
Last Quarter
May 28
New

Hourly Weather History & Observations

Time (CDT) Temp. Dew Point Humidity Pressure Visibility Wind Dir Wind Speed Gust Speed Precip Events Conditions
12:53 AM 57.0 °F 46.9 °F 69% 30.01 in 10.0 mi SSE 4.6 mph - N/A   Clear
1:53 AM 55.9 °F 46.9 °F 72% 30.01 in 10.0 mi SE 4.6 mph - N/A   Clear
2:53 AM 55.9 °F 46.0 °F 69% 30.01 in 10.0 mi ESE 3.5 mph - N/A   Clear
3:53 AM 54.0 °F 46.9 °F 77% 30.01 in 10.0 mi Calm Calm - N/A   Clear
4:53 AM 52.0 °F 48.0 °F 86% 30.01 in 10.0 mi ESE 3.5 mph - N/A   Clear
5:53 AM 51.1 °F 48.0 °F 89% 30.03 in 9.0 mi Calm Calm - N/A   Clear
6:53 AM 51.1 °F 48.9 °F 92% 30.04 in 8.0 mi Calm Calm - N/A   Clear
7:53 AM 59.0 °F 53.1 °F 81% 30.05 in 8.0 mi Calm Calm - N/A   Clear
8:53 AM 68.0 °F 48.0 °F 49% 30.06 in 10.0 mi WSW 8.1 mph - N/A   Clear
9:53 AM 73.0 °F 46.9 °F 39% 30.06 in 10.0 mi WSW 9.2 mph 16.1 mph N/A   Clear
10:53 AM 77.0 °F 48.0 °F 36% 30.06 in 10.0 mi WSW 9.2 mph - N/A   Clear
11:53 AM 79.0 °F 46.9 °F 32% 30.06 in 10.0 mi Variable 3.5 mph - N/A   Clear
12:53 PM 81.0 °F 46.0 °F 29% 30.05 in 10.0 mi Variable 4.6 mph - N/A   Clear
1:53 PM 82.9 °F 43.0 °F 24% 30.04 in 10.0 mi West 3.5 mph - N/A   Clear
3:53 PM 86.0 °F 42.1 °F 21% 30.00 in 10.0 mi Variable 5.8 mph - N/A   Clear
4:53 PM 86.0 °F 39.9 °F 20% 30.00 in 10.0 mi SW 9.2 mph - N/A   Clear
5:53 PM 86.0 °F 39.0 °F 19% 29.99 in 10.0 mi SSW 9.2 mph - N/A   Clear
6:53 PM 84.0 °F 39.9 °F 21% 30.00 in 10.0 mi SSW 5.8 mph - N/A   Clear
7:53 PM 73.0 °F 51.1 °F 46% 30.02 in 10.0 mi Calm Calm - N/A   Clear
8:53 PM 66.9 °F 48.0 °F 51% 30.04 in 10.0 mi Calm Calm - N/A   Clear
9:53 PM 64.9 °F 50.0 °F 58% 30.05 in 10.0 mi Calm Calm - N/A   Clear
10:53 PM 61.0 °F 52.0 °F 72% 30.08 in 10.0 mi Calm Calm - N/A   Clear
11:53 PM 62.1 °F 55.9 °F 80% 30.09 in 10.0 mi Calm Calm - N/A   Clear